THORAD AGENA D DEB, 5067

Orbit data source: Space-Track

THORAD AGENA D DEB, 5067 is space debris in SSO originally from a launch on Wed, 08 Apr 1970 UTC launched from the Air Force Western Test Range (AFWTR). Debris objects in space refer to the collection of defunct objects orbiting the Earth. Examples of debris include non-operational satellites, rocket bodies, and fragments generated from explosions, collisions, or faulty payload assembly.

Loading next visibility...
Identifier
5067, 1970-025JM
Orbit
SSO
Country
Flag of USUS
Related business
Manufacturer
Unknown
Mission
Spacecraft
Bus & Motor
Unknown
Mass
Unknown
Launch date (UTC)
1970-04-08 (56 years ago)
Launch vehicle
Unknown
Launch site
Air Force Western Test Range (AFWTR)
Object type
Payload
Rocket body
Debris
Shape & HBR
Unknown shape, 0.1 m
Radar Cross Section
Small (<0.1 m²)

Expand to show TLE details & history
Last TLE update: 1 day ago

TLE from 1 day ago
0 THORAD AGENA D DEB
1 05067U 70025JM  25352.67388703  .00000340  00000-0  47721-3 0  9992
2 05067 100.0167 237.0859 0006848 348.7641  67.7323 13.65174623760692
Epoch: 2025-12-18T16:10Z
TLE epoch observation values (Epoch: 2025-12-18T16:10:23.839Z)
Latitude
55.36694°
Longitude
-107.77739°
Altitude
1,024.118 km
Speed
7.346 km/s
True Right ascension
14h 49m 23s
True Declination
55° 12' 42"
Sunlit
Object was in daylight at epoch
Visualization orbit readout
Latitude
Unknown
Longitude
Unknown
Altitude
Unknown
Speed
Unknown
Apparent Right ascension
Unknown
Apparent Declination
Unknown
Sunlit
N/A
Visualization observer readout
Local Sidereal Time
15:53:47
Azimuth
Unknown
Elevation
Unknown
Doppler factor
Unknown
Orbital elements
Apogee altitude
1,019.306 km
Perigee altitude
1,009.181 km
Semi-major axis
7,392.381 km
Eccentricity
0.00068
Inclination
100.0167°
RAAN
237.0859°
Arg. of periapsis
348.7641°
True anomaly
67.80494°
Mean anomaly
67.7323°
Eccentric anomaly
67.76862°
Mean motion
3.41481 °/min
Orbital period
105.42 mins
BSTAR
0.00047721
Loading maneuver chart data...
Computing Atmospheric mass density...

Documentation

Showing up to 5 results
|